This is the latest recevied weather packets stored in our database for station/object KS5S. If no packets are shown the sender has not sent any weather packets the latest 10 day(s).
| Time | Temp. | Humidity | Pressure | Rain* | Wind** | Luminosity | Snow |
|---|---|---|---|---|---|---|---|
| 1777983347 | 21.11° C | 94% | 1002.8 hPa | 0 mm | - | 33 W/m² | - |
| 1777983044 | 21.11° C | 95% | 1002.7 hPa | 0 mm | - | 27 W/m² | - |
| 1777982740 | 21.11° C | 95% | 1002.9 hPa | 0 mm | - | 21 W/m² | - |
| 1777982436 | 20.56° C | 95% | 1002.6 hPa | 0 mm | - | 14 W/m² | - |
| 1777982131 | 20.56° C | 95% | 1002.7 hPa | 0 mm | - | 11 W/m² | - |
| 1777981829 | 20.56° C | 95% | 1002.7 hPa | 0 mm | - | 7 W/m² | - |
| 1777981525 | 20.56° C | 95% | 1002.6 hPa | 0 mm | - | 4 W/m² | - |
| 1777981222 | 20.56° C | 95% | 1002.5 hPa | 0 mm | - | 2 W/m² | - |
| 1777980918 | 20.56° C | 95% | 1002.9 hPa | 0 mm | - | 1 W/m² | - |
| 1777980615 | 20.56° C | 95% | 1002.7 hPa | 0 mm | - | 1 W/m² | - |
| 1777980310 | 20.56° C | 95% | 1002.5 hPa | 0 mm | - | 0 W/m² | - |
| 1777980009 | 20.56° C | 96% | 1002.6 hPa | 0 mm | - | 0 W/m² | - |
| 1777979702 | 20.56° C | 95% | 1002.6 hPa | 0 mm | - | 0 W/m² | - |
| 1777979399 | 20.56° C | 95% | 1002.7 hPa | 0 mm | - | 0 W/m² | - |
| 1777979095 | 20.56° C | 95% | 1002.5 hPa | 0 mm | - | 0 W/m² | - |
| 1777978792 | 20.56° C | 95% | 1002.4 hPa | 0 mm | - | 0 W/m² | - |
| 1777978489 | 20.56° C | 95% | 1002.6 hPa | 0 mm | - | 0 W/m² | - |
| 1777978185 | 20.56° C | 95% | 1002.6 hPa | 0 mm | - | 0 W/m² | - |
| 1777977882 | 20.56° C | 95% | 1002.4 hPa | 0 mm | - | 0 W/m² | - |
| 1777977579 | 20.56° C | 95% | 1002.6 hPa | 0 mm | - | 0 W/m² | - |
| 1777977277 | 20.56° C | 95% | 1002.5 hPa | 0 mm | - | 0 W/m² | - |
| 1777976973 | 20.56° C | 94% | 1002.4 hPa | 0 mm | - | 0 W/m² | - |
| 1777976670 | 20.56° C | 94% | 1002.5 hPa | 0 mm | - | 0 W/m² | - |
| 1777976367 | 21.11° C | 94% | 1002.5 hPa | 0 mm | - | 0 W/m² | - |
| 1777976061 | 21.11° C | 94% | 1002.6 hPa | 0 mm | - | 0 W/m² | - |
* Rain latest hour (hover to see other rain measurements)
** Current wind speed in m/s (hover to see current wind gust speed)